CAPE
1 4 10 9 14 13 9 8 7 14 7 12 31 33 13 5 13 17 15 5 5 20 0 1 1 0 0 0 0 0 0 0 0 0 0 0 0 0 0 0 0 0 0
3 6 5 12 11 8 9 2 5 4 16 20 29 33 25 6 3 24 13 4 19 0 1 3 2 1 4 3 0 0 0 0 0 0 0 0 0 0 0 0 0 0 0
6 8 13 9 12 10 10 12 20 15 12 9 15 17 18 16 7 8 28 9 12 0 2 2 7 5 8 2 0 0 0 0 0 0 0 0 0 0 0 0 0 0 0
10 9 12 19 9 12 22 19 18 16 12 7 10 9 9 10 15 2 24 14 1 6 1 1 12 4 4 4 0 0 0 0 0 0 0 0 0 0 0 0 0 0 0
6 12 15 26 19 23 7 16 17 4 20 21 15 19 19 1 7 8 13 34 2 36 2 0 16 7 0 0 0 0 0 0 0 0 0 0 0 0 0 0 0 0 0
1 10 18 21 18 10 15 9 18 7 22 15 12 14 16 19 0 1 14 33 19 53 2 0 0 4 0 0 0 0 0 0 0 0 0 0 0 0 0 0 0 0 0
2 10 15 10 23 15 10 7 7 5 15 10 12 12 8 13 15 5 2 22 22 28 12 0 0 1 0 0 0 0 0 0 0 0 0 0 0 0 0 0 0 0 0
0 3 8 16 12 18 12 13 6 2 7 10 9 11 9 11 18 3 0 9 9 23 0 0 0 1 0 0 0 0 0 0 0 0 0 0 0 0 0 0 0 0 0
0 1 5 17 7 12 8 17 18 5 13 14 13 8 7 3 22 3 0 2 6 8 0 0 0 0 0 0 0 0 0 0 0 0 0 0 0 0 0 0 0 0 0
1 0 4 11 4 5 8 20 18 27 17 29 11 7 17 2 10 10 1 3 1 0 1 0 0 0 0 0 0 0 0 0 0 0 0 0 0 0 0 0 0 0 0
0 0 1 7 12 10 11 9 33 37 24 20 24 8 6 6 2 11 7 6 5 2 3 0 0 0 0 0 0 0 0 3 0 0 0 0 0 0 0 2 3 3 4
1 1 2 13 17 23 12 11 20 35 34 23 23 6 6 0 12 6 8 6 9 4 1 1 1 0 0 0 0 0 0 0 0 0 0 0 1 2 6 7 10 14 16
1 5 6 11 24 19 28 38 43 47 33 19 16 5 0 1 0 9 5 7 15 7 3 3 1 0 0 1 0 0 0 2 3 0 0 5 6 8 9 13 16 25 29
1 0 3 10 19 19 22 46 57 64 58 39 19 13 7 6 3 4 3 3 6 8 13 10 7 5 1 6 5 13 24 12 4 5 7 11 13 12 10 9 13 19 15
0 0 0 1 10 26 32 61 43 32 24 57 47 36 21 13 9 5 5 5 6 5 18 20 24 27 32 31 28 11 7 5 7 12 12 2 3 4 5 13 16 19 16
0 0 0 0 0 2 10 17 9 1 0 0 0 12 19 7 0 0 0 0 0 0 9 18 16 18 16 13 10 8 12 9 14 10 7 6 5 5 3 5 16 20 23
0 0 0 0 0 0 0 0 0 0 0 0 0 0 0 0 0 0 0 0 0 0 6 6 7 5 5 5 7 10 13 13 14 17 15 9 6 4 2 12 19 24 23
0 0 0 1 2 2 3 2 0 0 0 0 0 0 0 0 0 0 0 0 1 1 6 5 9 7 8 9 9 8 8 8 7 8 9 11 11 13 23 23 23 22 24
0 0 0 0 2 5 10 3 3 1 0 0 0 0 0 0 0 0 0 0 2 4 5 5 6 7 3 2 7 12 10 11 7 8 7 9 11 11 15 17 17 2 1
0 0 0 0 0 4 9 14 10 3 1 0 0 0 0 0 0 0 0 0 3 7 7 9 10 8 7 5 8 17 15 12 11 12 10 10 10 9 4 18 19 22 25
0 0 0 0 0 3 6 10 9 10 1 0 0 0 0 0 0 0 0 0 4 6 6 1 6 12 9 5 7 11 15 21 16 19 22 8 6 8 9 9 15 26 29
0 0 0 0 1 3 8 5 8 10 6 0 0 0 0 0 0 0 0 0 2 6 8 9 14 13 8 9 7 12 18 18 16 17 19 17 14 15 17 3 3 12 18
0 0 1 2 1 0 7 5 5 11 5 0 0 0 0 0 0 0 0 0 1 5 8 10 13 13 11 13 12 9 15 23 25 28 15 15 21 23 24 27 14 14 23
0 1 0 8 4 2 7 8 8 0 4 0 0 0 0 0 0 0 0 0 0 2 9 10 12 13 7 15 19 17 14 20 14 25 20 22 17 10 18 24 30 19 18
1 2 11 7 8 7 8 13 11 7 0 0 0 0 0 0 0 0 0 0 0 0 5 8 13 15 12 11 10 11 4 0 8 0 16 19 17 10 27 18 22 20 16
34 11 5 3 1 2 11 19 18 4 0 0 0 0 0 0 0 0 0 0 0 0 2 6 8 8 9 9 8 2 0 2 9 0 7 16 19 13 27 18 5 2 7
CIN
0 0 0 0 0 0 0 0 0 0 0 0 0 0 0 0 0 0 0 0 0 -193 0 0 0 0 0 0 0 0 0 0 0 0 0 0 0 0 0 0 0 0 0
0 0 0 0 0 0 0 0 0 0 0 0 0 0 0 0 0 0 0 0 0 0 0 0 0 0 0 0 0 0 0 0 0 0 0 0 0 0 0 0 0 0 0
0 0 0 0 0 -1 0 0 0 0 0 0 0 0 0 0 0 0 0 0 0 -2 0 0 0 0 0 0 0 0 0 0 0 0 0 0 0 0 0 0 0 0 0
0 0 0 0 0 0 0 0 0 0 0 0 0 0 0 0 0 0 0 0 0 -10 0 0 0 0 0 0 0 0 0 0 0 0 0 0 0 0 0 0 0 0 0
0 0 0 0 0 0 0 0 0 -1 0 0 0 0 0 0 0 0 0 0 -1 0 -16 -1 0 0 0 0 0 0 0 0 0 0 0 0 0 0 0 0 0 0 0
0 0 0 0 0 0 0 0 0 0 0 0 0 0 0 0 0 0 0 0 -1 0 -38 0 -1 -1 0 0 0 0 0 0 0 0 0 0 0 0 0 0 0 0 0
0 0 0 0 0 0 0 0 0 0 0 0 0 0 0 0 0 0 0 0 0 -2 -26 0 -1 -1 0 0 0 0 0 0 0 0 0 0 0 0 0 0 0 0 0
0 0 0 0 0 0 0 0 0 0 0 0 0 0 0 0 0 0 0 0 0 -1 0 0 0 -1 0 0 0 0 0 0 0 0 0 0 0 0 0 0 0 0 0
0 0 0 0 0 0 0 0 0 0 0 0 0 0 0 0 0 0 0 0 -4 -9 0 -1 0 -1 0 0 0 0 0 0 0 0 0 0 0 0 0 0 0 0 0
0 0 0 0 -2 -1 0 0 0 0 0 0 0 0 0 0 0 0 0 0 0 0 0 0 0 0 0 0 0 0 0 0 0 0 0 0 0 0 0 0 0 0 0
0 0 0 0 -1 0 0 0 0 0 0 0 0 0 0 0 0 0 0 0 0 0 0 0 0 0 0 0 0 0 0 0 0 0 0 0 0 0 0 0 0 0 0
0 0 0 0 0 0 0 0 0 0 0 0 0 -1 0 0 0 0 0 0 0 0 0 0 0 0 0 0 0 0 0 0 0 0 0 0 0 0 0 0 0 0 0
0 0 0 0 0 -1 0 0 0 0 0 0 0 0 0 0 0 0 0 0 0 0 0 0 0 0 0 0 0 0 0 0 -1 0 0 0 0 0 0 0 0 0 0
0 0 0 0 0 0 -2 0 0 0 0 0 0 0 0 0 0 0 0 0 0 0 0 0 -1 -2 -1 0 -2 0 0 0 0 0 0 0 0 0 0 0 0 0 0
0 0 0 0 0 0 0 0 0 0 -1 0 0 0 0 0 0 0 0 0 0 -1 0 0 0 0 0 0 0 0 0 0 0 0 0 0 0 0 0 0 0 0 0
0 0 0 0 0 0 0 0 -4 -11 0 0 0 0 0 0 0 0 0 0 0 0 0 0 0 0 0 0 0 0 0 0 0 0 0 0 0 0 0 0 0 0 0
0 0 0 0 0 0 0 0 0 0 -7 0 0 0 0 0 0 0 0 0 0 0 0 0 0 0 0 0 0 0 0 0 0 0 0 0 0 0 0 0 0 0 0
0 0 0 0 0 0 0 0 0 0 0 0 0 0 0 0 0 0 0 0 0 0 0 0 0 0 0 0 0 0 0 0 0 0 0 0 0 0 0 0 0 0 0
0 0 0 0 0 0 0 0 0 0 0 0 0 0 0 0 0 0 0 0 0 0 0 0 0 0 0 0 0 0 0 0 -1 0 0 0 0 0 0 0 0 -1 -1
0 0 0 0 0 0 0 0 0 0 0 0 0 0 0 0 0 0 0 0 0 0 0 0 0 0 0 0 0 0 0 0 0 0 0 0 0 0 -1 0 0 0 0
0 0 0 0 0 0 0 0 0 0 0 0 0 0 0 0 0 0 0 0 0 0 0 0 0 0 0 0 0 0 0 0 0 0 0 0 0 0 0 0 0 0 0
0 0 0 0 0 0 0 0 0 0 0 0 0 0 0 0 0 0 0 0 0 0 0 0 0 0 0 0 0 0 0 0 0 0 0 0 0 0 0 0 0 0 0
0 0 0 0 0 0 0 0 0 0 0 0 0 0 0 0 0 0 0 0 0 0 0 0 0 0 0 0 0 0 0 0 0 0 0 0 0 0 0 0 0 0 0
0 0 0 0 0 0 0 0 0 -1 0 0 0 0 0 0 0 0 0 0 0 0 0 0 0 0 0 0 0 0 0 0 0 0 0 0 0 0 0 0 0 0 0
-1 -4 0 0 0 0 0 0 0 0 0 0 0 0 0 0 0 0 0 0 0 0 0 0 0 0 0 0 0 0 -1 0 -1 -1 0 0 0 0 0 0 0 0 0
0 0 0 0 0 0 0 0 0 0 0 0 0 0 0 0 0 0 0 0 0 0 0 0 0 0 0 0 0 -2 0 0 0 -1 0 0 0 0 0 0 0 0 0
Wind_Speed
16 15 16 16 17 17 17 19 19 19 21 21 20 20 19 19 19 20 20 19 19 12 11 14 16 14 10 9 8 8 7 4 4 1 7 8 8 8 6 4 2 1 0
15 16 18 16 19 19 17 20 20 21 20 20 20 21 20 21 19 21 22 19 19 14 15 15 17 13 17 15 10 11 11 11 4 9 8 7 8 7 5 4 1 2 3
15 15 16 18 16 19 19 19 19 20 20 21 20 21 21 20 19 20 22 20 21 17 18 18 21 21 18 13 12 11 7 3 5 6 7 7 6 6 6 4 3 1 2
14 15 16 17 16 17 18 19 19 19 20 20 21 21 22 22 20 20 22 21 18 18 18 19 22 22 22 19 15 15 9 8 6 8 8 8 7 7 4 4 4 0 3
14 15 16 18 16 18 17 17 18 18 17 18 21 21 24 18 15 17 20 23 19 20 18 18 20 23 25 22 14 14 14 12 9 8 8 6 7 7 6 4 2 1 1
15 15 16 17 19 17 18 18 17 19 18 17 18 20 22 16 20 25 23 20 18 20 17 17 17 23 22 23 20 20 17 15 11 9 7 9 9 7 6 5 4 3 1
14 14 14 16 18 18 17 19 20 19 18 18 19 19 21 20 31 28 28 20 18 21 17 18 15 14 21 17 21 20 15 11 12 10 12 9 10 9 7 7 5 4 4
14 14 14 16 16 18 18 18 20 18 19 17 19 20 19 17 38 32 24 20 17 22 19 19 19 20 20 20 20 15 13 11 11 9 10 10 8 9 7 5 4 3 4
15 14 14 15 16 16 17 17 16 18 16 16 17 21 22 21 39 37 10 12 16 9 12 16 16 19 25 28 21 19 14 10 12 13 14 12 10 8 4 5 5 5 5
15 14 13 13 14 15 15 15 17 15 18 16 19 20 27 24 35 40 25 8 11 10 11 10 12 13 25 21 20 18 15 12 14 13 10 10 9 7 6 5 4 6 5
14 13 13 13 11 13 15 14 17 17 17 19 20 19 23 24 25 38 35 14 10 12 11 8 13 23 21 14 14 11 13 13 13 10 8 7 6 5 5 4 4 5 5
13 13 13 13 8 9 13 14 15 16 17 17 17 16 16 19 29 30 36 31 23 12 15 11 16 23 22 18 16 17 16 12 7 6 7 6 5 5 4 3 3 5 6
13 14 13 13 12 8 10 12 10 13 13 14 14 14 14 13 14 29 26 29 29 16 10 21 20 23 18 18 13 10 9 5 6 6 6 5 4 3 1 3 4 6 8
13 14 13 12 13 11 5 9 10 11 11 12 13 12 12 13 14 13 12 11 17 13 14 14 15 14 12 12 8 4 3 5 6 4 5 4 3 2 1 1 3 4 5
12 12 13 11 12 10 7 7 8 11 12 11 11 11 11 13 14 19 18 12 10 11 9 10 8 7 8 6 6 7 6 5 3 5 5 4 3 1 1 1 3 3 4
11 10 10 10 10 10 10 9 7 7 10 14 17 14 10 16 21 22 20 21 20 17 9 8 8 8 7 7 6 5 4 3 4 4 4 3 2 0 1 2 3 3 4
10 10 8 9 10 10 10 10 11 10 8 8 13 16 19 18 18 19 18 12 13 10 9 9 8 7 6 6 5 3 3 4 3 3 2 2 2 0 3 2 2 3 4
8 4 8 8 8 9 10 10 10 11 11 11 11 12 17 18 15 13 15 10 10 10 8 7 7 7 6 5 4 3 2 3 2 2 2 2 0 2 3 3 3 4 3
7 8 8 7 7 7 9 10 9 10 10 10 10 9 13 17 12 12 12 9 9 9 8 8 7 6 6 5 4 4 3 3 3 2 1 1 2 3 4 4 3 3 4
3 4 6 8 8 8 7 8 10 10 10 11 10 10 12 11 9 9 9 9 9 8 8 7 7 6 6 6 6 6 5 3 2 2 2 3 3 4 4 4 3 4 5
2 4 3 7 8 8 8 8 8 9 9 9 10 10 12 11 10 9 9 9 8 8 8 7 6 6 5 6 6 5 4 5 4 4 3 3 3 3 3 3 4 4 4
2 4 5 6 7 9 9 8 8 10 10 9 9 9 5 7 8 9 9 9 8 8 6 7 6 5 4 4 5 6 5 6 5 3 3 3 3 5 5 4 4 4 4
3 5 5 6 7 7 8 9 8 10 11 10 10 9 9 8 8 9 9 9 8 7 8 8 8 7 6 6 5 5 6 6 5 4 3 4 4 4 4 5 4 4 4
4 4 5 6 7 8 8 9 8 8 10 10 10 9 9 9 9 10 9 9 9 8 8 8 7 9 8 7 6 6 6 6 4 5 6 5 5 6 3 4 7 5 5
4 3 5 7 8 9 8 9 9 10 11 10 10 10 10 9 9 9 9 8 8 8 8 8 7 10 11 12 11 11 8 4 7 7 6 7 8 8 6 5 5 6 6
2 3 5 7 8 8 8 8 9 10 10 10 10 10 11 10 10 11 10 10 10 11 11 7 9 12 13 10 10 7 6 7 9 6 7 6 7 7 6 8 9 7 7
Wind_Direction
348 341 337 339 328 327 322 318 316 309 309 304 298 292 289 285 279 278 275 272 269 221 191 191 189 174 170 173 168 164 169 219 184 111 139 157 169 172 154 154 167 285 352
344 343 345 331 335 332 325 322 315 311 306 300 295 290 287 284 274 268 271 267 263 209 193 195 194 181 183 182 175 178 179 168 207 147 164 161 188 155 143 139 8 348 317
340 344 341 345 331 331 327 323 316 312 305 301 296 290 285 277 270 264 263 263 271 211 200 196 200 193 188 180 175 180 193 185 154 158 149 166 151 151 141 168 201 307 294
341 341 341 346 335 332 332 327 318 314 307 303 302 291 282 275 265 261 260 261 264 220 210 200 197 195 190 178 184 184 179 170 179 160 153 158 153 141 158 189 193 288 329
342 346 348 344 341 340 341 332 324 328 325 322 316 314 313 265 259 251 253 255 254 232 211 202 197 195 197 181 171 172 168 165 171 162 150 158 151 161 180 155 177 314 301
348 349 347 349 352 348 342 342 336 339 335 329 334 330 323 321 266 254 249 255 253 237 202 197 195 191 184 171 160 165 174 159 163 157 166 164 150 164 155 168 176 210 219
345 350 353 351 351 355 348 345 348 342 341 342 340 340 335 328 338 295 249 245 245 249 199 188 183 183 173 157 145 153 151 151 150 153 158 165 158 165 158 174 183 213 241
349 351 354 350 347 353 352 344 342 344 348 351 347 344 341 337 338 325 253 238 238 240 188 183 176 167 165 154 144 141 141 141 141 146 147 146 145 155 166 180 177 222 242
350 348 350 346 349 348 351 341 343 343 350 356 349 350 350 349 350 343 306 235 237 187 172 174 167 162 157 149 140 136 128 119 93 92 97 106 106 102 129 178 212 245 265
347 347 345 348 348 349 351 342 347 343 358 352 2 358 353 354 354 0 20 26 82 79 77 88 118 125 134 147 134 134 130 133 135 122 113 119 137 138 167 239 264 257 257
346 345 348 354 341 353 351 352 351 353 357 1 1 3 1 356 353 7 21 30 39 73 63 72 78 77 79 66 96 120 127 133 126 126 144 125 141 154 155 195 215 259 248
349 351 350 349 346 354 355 356 356 357 358 360 359 5 3 356 357 5 14 30 36 45 76 47 68 67 71 55 72 92 101 114 119 139 126 136 152 149 148 203 208 257 262
353 355 350 350 353 2 355 359 358 2 4 357 2 3 359 357 357 5 6 20 37 48 42 76 67 71 60 73 87 106 99 122 118 127 119 129 137 116 173 208 216 246 256
355 355 352 352 353 2 358 2 3 7 7 5 2 359 357 360 3 5 6 11 23 37 42 71 78 81 93 100 104 106 119 91 86 109 114 108 115 172 176 232 246 247 270
358 359 358 356 360 4 353 344 1 14 10 7 5 358 2 7 3 5 11 13 14 22 47 57 72 80 84 85 93 93 90 106 115 107 102 110 104 104 25 315 269 268 282
357 2 5 355 359 360 356 354 355 2 2 10 6 10 360 8 2 7 8 18 10 5 41 46 44 47 51 57 69 76 87 93 90 100 100 120 129 220 324 274 280 271 270
360 357 357 1 0 0 1 356 350 1 355 22 13 4 4 358 1 4 358 3 24 27 42 41 42 44 48 55 53 38 45 37 32 74 126 162 174 130 258 272 270 275 278
1 357 346 354 355 354 358 359 353 352 352 353 5 1 0 351 347 347 346 356 26 35 40 38 29 26 26 25 26 15 12 24 29 18 4 5 41 259 262 272 283 289 305
4 7 351 350 354 341 351 353 357 352 352 354 352 360 0 342 332 344 350 18 19 19 14 11 12 12 4 353 349 349 351 17 353 326 330 307 291 276 273 283 290 291 318
352 6 334 352 352 352 355 354 349 353 350 350 351 357 353 337 360 2 5 6 8 9 6 356 348 347 347 344 340 339 343 333 321 291 277 277 290 285 286 302 292 289 286
297 335 315 354 358 353 356 354 344 344 348 345 347 357 345 332 347 351 355 359 2 4 352 346 338 335 331 320 320 301 306 277 278 277 291 276 264 251 252 273 286 308 280
261 316 352 355 346 352 347 344 347 344 349 341 343 345 308 332 343 342 344 345 346 353 343 334 327 315 313 307 312 308 305 293 284 284 282 280 281 283 287 269 265 249 297
274 297 331 347 347 337 349 351 348 334 341 341 342 341 344 342 338 338 338 337 338 343 334 330 327 320 318 312 298 285 286 290 301 288 274 281 290 272 279 286 296 287 241
245 280 308 342 352 334 346 339 339 337 340 340 341 340 337 335 334 336 333 332 329 338 325 320 315 311 310 305 293 283 281 280 305 301 275 262 262 251 256 268 275 253 290
261 315 320 351 341 341 337 337 339 343 341 339 338 337 335 335 334 334 330 329 327 326 327 317 310 309 306 303 296 292 298 301 281 302 284 275 266 275 272 258 255 276 270
344 348 356 348 345 345 344 341 337 338 339 336 337 334 335 333 333 334 333 334 333 326 319 319 314 311 307 299 297 314 302 282 270 265 277 265 255 251 246 248 245 250 252